EW7304 Weather Reports


Display with metric or nautical units.
time (UTC)temp
F
wind
direction
speed
MPH
gust
MPH
rain 1hr
in
rain 24hr
in
rain mn
in
humidity
%
barometer
mb
20200605061534 76 257 0.0 0.0 0.00 0.00 0.00 80 1013.1
20200605060059 76 257 0.0 0.0 0.00 0.00 0.00 80 1013.2
20200605054615 76 257 0.0 0.0 0.00 0.00 0.00 81 1013.5
20200605053029 77 257 0.0 0.0 0.00 0.00 0.00 81 1013.2
20200605051603 77 257 0.0 0.0 0.00 0.00 0.00 81 1013.3
20200605050025 77 257 0.0 0.0 0.00 0.00 0.00 81 1013.4
20200605044519 77 257 0.0 0.0 0.00 0.00 0.00 81 1013.5
20200605043046 77 257 0.0 0.0 0.00 0.00 0.00 81 1013.4
20200605041525 78 257 0.0 0.0 0.00 0.00 0.00 81 1013.3
20200605040022 78 257 0.0 0.0 0.00 0.00 0.00 82 1013.1
20200605034531 78 257 0.0 0.0 0.00 0.00 0.00 82 1013.0
20200605033011 79 257 0.0 1.0 0.00 0.00 0.00 82 1012.8
20200605031515 79 234 0.0 1.0 0.00 0.00 0.00 82 1012.2
20200605030037 80 232 0.0 1.0 0.00 0.00 0.00 82 1011.8
20200605024511 80 231 0.0 0.0 0.00 0.00 0.00 81 1011.8
20200605023029 80 233 0.0 2.0 0.00 0.00 0.00 81 1011.7
20200605021509 81 242 0.0 2.0 0.00 0.00 0.00 80 1011.6
20200605020014 81 234 0.0 1.0 0.00 0.00 0.00 80 1011.2
20200605014507 81 236 0.0 2.0 0.00 0.00 0.00 79 1011.1
20200605013019 82 240 1.0 6.0 0.00 0.00 0.00 79 1011.2
20200605011509 82 220 0.0 4.0 0.00 0.00 0.00 78 1011.0
20200605010006 83 232 0.0 2.0 0.00 0.00 0.00 76 1011.1
20200605004505 83 234 1.0 5.0 0.00 0.00 0.00 76 1011.0
20200605003003 83 107 0.0 4.0 0.00 0.00 0.00 75 1011.0
20200605001508 84 219 0.0 5.0 0.00 0.00 0.00 74 1011.1
20200605000002 84 223 0.0 4.0 0.00 0.00 0.00 73 1011.1
20200604234656 84 231 0.0 3.0 0.00 0.00 0.00 71 1010.7
20200604233224 85 101 0.0 4.0 0.00 0.00 0.00 69 1010.9
20200604231629 86 107 0.0 5.0 0.00 0.00 0.00 70 1010.9
20200604230319 87 222 0.0 4.0 0.00 0.00 0.00 70 1010.9
20200604224638 87 230 0.0 2.0 0.00 0.00 0.00 70 1011.1
20200604223157 87 105 0.0 5.0 0.00 0.00 0.00 68 1011.2
20200604221643 88 236 1.0 5.0 0.00 0.00 0.00 68 1011.1
20200604220120 88 70 0.0 4.0 0.00 0.00 0.00 69 1011.2
20200604214623 88 86 0.0 5.0 0.00 0.00 0.00 66 1011.3
20200604213150 89 98 0.0 4.0 0.00 0.00 0.00 66 1011.4
20200604211701 88 149 0.0 2.0 0.00 0.00 0.00 68 1011.4
20200604210130 88 228 0.0 5.0 0.00 0.00 0.00 68 1011.4
20200604204617 89 225 0.0 7.0 0.00 0.00 0.00 67 1011.5
20200604203206 88 235 0.0 7.0 0.00 0.00 0.00 68 1011.7
20200604201619 88 255 0.0 4.0 0.00 0.00 0.00 67 1011.7
20200604200102 88 223 2.0 6.0 0.00 0.00 0.00 66 1011.8
20200604194622 89 98 0.0 4.0 0.00 0.00 0.00 65 1011.8
20200604193147 91 227 0.0 5.0 0.00 0.00 0.00 64 1011.9
20200604191711 89 207 0.0 4.0 0.00 0.00 0.00 66 1012.2
20200604190146 87 98 0.0 4.0 0.00 0.00 0.00 68 1012.2
20200604184709 88 98 0.0 2.0 0.00 0.05 0.00 66 1012.3
20200604183240 90 240 0.0 2.0 0.00 0.05 0.00 62 1012.4
20200604181743 92 112 0.0 4.0 0.00 0.05 0.00 58 1012.5
20200604180127 90 231 0.0 4.0 0.00 0.05 0.00 62 1012.7
20200604174617 90 228 0.0 5.0 0.00 0.05 0.00 59 1012.8
20200604173141 90 243 1.0 4.0 0.00 0.05 0.00 62 1013.0
20200604171556 89 95 0.0 2.0 0.00 0.05 0.00 63 1013.1
20200604170102 88 233 0.0 5.0 0.00 0.05 0.00 64 1013.3
20200604164551 87 233 0.0 2.0 0.00 0.08 0.00 65 1013.3
20200604163057 86 322 1.0 3.0 0.00 0.08 0.00 69 1013.4
20200604161540 86 272 0.0 2.0 0.00 0.08 0.00 70 1013.5
20200604160104 86 275 1.0 6.0 0.00 0.08 0.00 70 1013.6
20200604154548 87 275 0.0 5.0 0.00 0.08 0.00 69 1013.6
20200604153107 86 232 0.0 4.0 0.00 0.08 0.00 72 1013.8
20200604151518 84 238 0.0 2.0 0.00 0.08 0.00 75 1013.9
20200604150013 83 280 0.0 1.0 0.00 0.08 0.00 79 1014.1
20200604144538 83 299 0.0 2.0 0.00 0.08 0.00 80 1014.3
20200604143018 82 294 0.0 0.0 0.00 0.08 0.00 81 1014.2
20200604141505 81 305 0.0 2.0 0.00 0.08 0.00 82 1014.0
20200604140152 80 299 0.0 1.0 0.00 0.08 0.00 82 1013.9
20200604134722 79 240 0.0 1.0 0.00 0.08 0.00 82 1013.6
20200604133148 78 280 0.0 1.0 0.00 0.08 0.00 81 1013.4
20200604131617 77 278 0.0 1.0 0.00 0.08 0.00 79 1013.2
20200604130133 76 279 0.0 2.0 0.00 0.08 0.00 64 1013.0
20200604124618 75 173 0.0 0.0 0.00 0.08 0.00 56 1012.8
20200604123101 74 173 0.0 0.0 0.00 0.08 0.00 56 1012.5
20200604121640 73 173 0.0 0.0 0.00 0.08 0.00 59 1012.2
20200604120056 73 173 0.0 0.0 0.00 0.08 0.00 60 1011.9
20200604114558 73 173 0.0 0.0 0.00 0.08 0.00 62 1011.9
20200604113152 73 173 0.0 0.0 0.00 0.08 0.00 63 1011.9
20200604111607 73 173 0.0 0.0 0.00 0.08 0.00 63 1011.7
20200604110055 73 173 0.0 0.0 0.00 0.08 0.00 64 1011.8
20200604104541 73 173 0.0 0.0 0.00 0.08 0.00 65 1011.7
20200604103105 73 173 0.0 0.0 0.00 0.08 0.00 65 1011.6
20200604101554 73 173 0.0 0.0 0.00 0.08 0.00 66 1011.6
20200604100146 73 173 0.0 0.0 0.00 0.08 0.00 66 1011.6
20200604094553 73 173 0.0 0.0 0.00 0.08 0.00 66 1011.6
20200604093056 73 173 0.0 0.0 0.00 0.08 0.00 67 1011.6
20200604091634 73 173 0.0 0.0 0.00 0.08 0.00 68 1011.6
20200604090059 74 173 0.0 0.0 0.00 0.08 0.00 69 1011.7
20200604084545 74 173 0.0 0.0 0.00 0.08 0.00 69 1011.8
20200604083109 74 173 0.0 0.0 0.00 0.08 0.00 70 1011.9
20200604081530 74 173 0.0 0.0 0.00 0.08 0.00 71 1011.9
20200604080101 74 173 0.0 0.0 0.00 0.08 0.00 71 1012.0
20200604074553 74 173 0.0 0.0 0.00 0.08 0.00 71 1012.2
20200604073105 75 173 0.0 0.0 0.00 0.08 0.00 71 1012.4
20200604071552 75 173 0.0 0.0 0.00 0.08 0.00 71 1012.3
20200604070032 75 173 0.0 0.0 0.00 0.08 0.00 71 1012.5
20200604064531 75 173 0.0 0.0 0.00 0.08 0.00 73 1012.6
20200604063011 75 173 0.0 0.0 0.00 0.08 0.00 74 1012.8